Location: Unspecified
(37.7830°S, 0.0000°E)
Time: 18:35:16
(UTC+00:00)

OTV 5 (USA 277) - Visible Passes

Search period start: 22 May 2019 00:00
Search period end: 01 June 2019 00:00
Orbit: 310 x 325 km, 54.5° (Epoch: 08 May)

Date Brightness Start Highest point End Pass type
(mag) Time Alt. Az. Time Alt. Az. Time Alt. Az.
26 May ? 18:20:42 10° N 18:21:33 15° NNE 18:21:33 15° NNE visible
27 May ? 18:34:41 10° NW 18:36:20 33° NNW 18:36:20 33° NNW visible
28 May ? 17:17:02 10° NNE 17:18:05 12° NE 17:19:08 10° ENE visible
28 May ? 18:49:36 10° WNW 18:51:02 24° W 18:51:02 24° W visible
29 May ? 17:30:06 10° NNW 17:32:36 35° NE 17:34:44 13° ESE visible
29 May ? 19:05:20 10° WSW 19:05:38 11° WSW 19:05:38 11° WSW visible
30 May ? 17:44:36 10° NW 17:47:17 62° SW 17:49:15 17° SE visible
31 May ? 17:59:54 10° W 18:02:08 22° SW 18:03:41 14° S visible
